Starlink 11582

operational
NORAD ID: 62985 Int'l Des: 2025-031 Owner: SPXS Country: US Constellation: starlink
LEOCIRCULAR

Über Starlink 11582

Beschreibung wird geladen...

Live-Position

3D-Globus wird geladen...

Nächste Überflüge

Höhenverlauf

Altitude vs Time

uPlot chart will show altitude changes over time

Zweizeiliger Elementsatz

1 62985U 25031E 25353.71209005 .00034515 00000-0 27094-3 0 9996
2 62985 42.9991 123.5723 0001996 275.9695 84.0945 15.70875903 50164
Epoch: 19. Dez. 2025 • Age: 17 hours

Aktueller Status

Höhe 359.0 km
Geschwindigkeit 7.70 km/s
Subsatellitenpunkt 35.38°N, 4.84°E
Startdatum 11. Feb. 2025
Alter 0.8 years
Typ internet

Technische Details

Klassifizierung Payload
Masse 960.00 kg
Trockenmasse 910.00 kg
Gesamtmasse 960.00 kg
Länge 0.30 m
Durchmesser 4.10 m
Spannweite 29.00 m
Form Box + pan
Hersteller SPXS
Bus-Typ Starlink V2MD
Phasenstatus In Orbit
Besitzer/Staat SPXS/US

Große Konstellationen

Loading constellations...